Theta_e
309 309 309 309 309 309 309 309 309 309 309 309 309 309 308 308 308 308 308 308 308 308 308 308 310 312 314 314 315 314 314 313 313 315 318 319 318 319 318 317 316 314 313 312 314 317 317 315 315 315 316 320 321 323 322 323 328 331 332 325 325 328 327 333 329 321 324 326 321 318 319 318 319 319 316 314 316 316 316 318 318 317 315 313 313 313 312 311
309 309 309 309 309 309 309 309 309 309 309 309 309 309 309 308 308 308 308 308 308 308 308 308 308 311 313 314 314 315 314 313 315 316 317 317 318 320 319 317 315 314 313 313 317 317 317 317 315 315 319 323 324 322 322 323 326 331 333 326 327 333 331 328 323 320 321 319 321 321 320 318 318 320 316 315 319 317 316 317 316 317 316 312 310 310 310 309
309 309 309 309 309 309 309 309 309 309 309 309 309 309 308 308 308 308 308 307 308 308 308 308 307 309 312 314 315 314 315 316 321 322 318 317 319 321 320 316 314 313 312 313 319 318 317 317 314 316 320 321 323 323 325 324 323 329 328 326 333 334 327 324 320 320 319 318 320 319 318 317 318 318 315 316 319 318 317 316 316 317 316 316 311 307 308 308
309 309 308 308 309 308 308 308 308 308 308 308 309 308 308 308 308 308 308 307 307 308 308 308 308 308 310 314 314 314 318 322 325 323 319 320 320 320 319 316 313 311 312 312 316 317 315 315 314 317 319 320 324 325 327 325 323 326 324 325 333 327 322 323 321 319 320 319 319 319 317 317 318 316 316 317 317 317 316 315 316 317 315 316 312 307 306 306
309 309 309 309 309 308 308 308 308 308 308 308 308 308 308 308 308 308 308 308 307 307 308 308 308 308 310 314 314 316 319 319 322 321 318 320 319 319 318 315 312 310 312 312 314 315 314 314 315 318 319 321 324 324 327 327 322 324 322 322 326 323 321 322 320 320 320 317 317 318 317 317 318 317 316 317 316 317 317 316 315 316 315 315 312 308 306 306
310 310 310 310 309 309 309 309 308 308 308 308 308 307 308 308 308 308 308 308 308 308 307 307 308 308 311 315 314 317 318 315 320 320 317 317 318 318 316 313 312 310 312 313 314 314 316 316 316 320 320 320 322 321 325 324 321 323 323 321 321 321 321 319 319 320 319 316 317 317 316 316 316 317 318 317 316 316 317 319 318 316 314 311 311 309 308 308
312 311 311 311 310 310 309 309 309 309 309 308 308 308 308 308 308 308 308 308 308 308 308 308 308 308 312 316 317 321 323 322 321 319 316 316 316 315 313 311 311 310 312 313 314 315 318 318 318 320 320 320 321 320 321 320 320 322 323 321 320 320 319 318 318 320 319 316 318 317 315 315 316 317 317 316 315 314 316 318 318 315 311 310 312 310 310 310
312 312 311 311 311 311 310 310 309 309 309 309 309 309 309 309 308 308 308 308 308 308 308 308 308 310 312 317 324 327 326 323 318 316 316 315 314 313 312 311 310 311 312 313 315 316 317 318 319 319 319 321 320 319 319 318 319 321 321 320 318 319 319 318 318 318 319 317 317 316 315 316 316 316 315 315 315 314 315 316 316 315 314 315 315 312 311 310
313 312 312 311 311 311 311 310 310 309 309 309 309 309 309 309 309 309 309 309 309 308 308 309 309 312 312 316 324 324 322 322 318 318 317 314 313 311 311 311 310 311 312 313 314 314 316 320 320 318 320 321 319 319 319 318 321 320 319 318 317 317 316 316 316 316 317 317 316 315 316 316 315 314 314 314 313 313 315 315 316 315 316 317 317 313 311 311
313 314 313 312 312 311 311 310 310 310 309 309 309 309 309 309 309 309 310 309 309 308 308 309 309 312 313 316 321 319 318 321 320 319 317 315 313 311 311 311 311 311 312 314 313 313 316 319 321 320 318 319 318 319 319 318 320 318 316 317 316 316 315 315 315 315 315 316 316 316 316 315 313 314 314 315 314 314 315 315 314 315 315 315 315 314 311 311
315 315 314 313 313 312 311 310 309 309 308 308 308 308 308 309 309 308 309 310 310 308 308 310 310 312 315 318 323 320 317 318 318 317 316 315 314 312 312 312 312 312 312 314 313 313 315 316 318 318 317 317 317 319 319 317 316 315 315 317 316 315 315 315 315 315 313 315 316 315 315 315 313 314 314 314 315 316 316 317 315 315 315 315 314 313 311 310
316 315 315 315 315 314 312 311 310 309 308 308 307 307 307 307 307 307 308 309 310 308 308 311 310 312 316 320 324 319 315 317 317 315 314 314 314 314 313 312 313 312 313 315 315 315 315 316 316 317 317 317 317 317 317 315 314 315 315 316 317 315 315 315 315 315 314 315 316 314 315 316 314 314 315 314 314 315 315 317 317 316 314 314 314 313 312 310
317 316 315 316 315 315 313 311 310 309 309 308 308 307 307 307 307 306 306 307 309 309 308 310 311 312 316 321 321 317 315 316 316 315 314 314 313 313 313 313 312 311 313 315 316 317 316 316 317 318 318 317 317 316 314 314 315 315 315 315 316 315 317 316 314 316 314 314 315 314 315 317 316 314 314 313 313 314 314 314 315 316 315 314 314 313 313 311
317 316 316 315 315 315 313 310 309 309 308 308 308 308 308 308 307 307 306 306 308 309 310 311 312 314 318 321 318 316 317 316 315 315 314 313 312 312 312 312 312 310 311 312 314 316 316 315 315 316 316 316 317 315 315 316 316 315 315 317 317 316 319 318 315 318 316 313 314 315 315 316 316 315 314 313 313 313 313 314 313 314 314 314 314 314 313 312
317 317 316 315 315 314 312 310 309 309 309 308 308 309 309 309 308 307 306 306 307 308 311 312 314 317 320 320 317 316 317 315 315 315 314 314 313 313 313 311 311 311 311 311 312 313 314 313 315 316 316 315 315 315 318 320 319 317 315 319 321 319 318 318 316 317 317 313 312 314 316 315 315 315 314 313 313 313 313 313 313 313 313 313 313 314 313 313
317 316 315 315 315 313 311 310 309 309 310 309 309 309 310 310 309 307 307 306 307 309 310 313 315 317 317 316 316 316 315 314 314 315 315 313 313 315 314 312 312 312 312 312 312 312 312 314 315 316 316 314 316 318 319 321 323 321 316 317 322 320 317 318 318 316 317 315 312 314 316 316 316 316 316 314 314 314 314 314 314 313 313 312 312 313 313 313
316 315 315 314 314 313 311 310 309 309 309 309 309 309 310 310 309 308 307 307 311 311 312 316 317 314 313 313 314 316 315 314 314 315 315 313 314 315 314 313 313 312 312 311 312 312 312 315 315 315 316 316 319 320 320 321 321 320 318 317 319 319 316 318 320 317 315 315 313 313 314 315 316 316 317 316 314 315 315 315 315 315 313 313 312 312 313 313
315 315 315 314 313 312 311 310 309 308 308 308 309 309 310 310 310 311 308 309 314 314 312 317 317 313 314 316 315 317 317 315 315 315 314 313 314 316 314 313 313 313 313 313 314 314 313 315 316 318 318 317 316 318 319 318 316 318 321 320 319 318 316 316 319 317 315 315 315 314 313 313 313 313 314 314 313 313 315 316 316 315 314 313 313 312 312 312
315 315 314 313 312 311 311 310 308 308 308 308 308 308 311 314 314 313 312 313 318 317 314 317 317 316 316 319 317 317 317 316 316 316 314 313 314 315 314 312 314 314 314 317 316 315 315 316 318 320 319 317 315 315 316 316 314 317 320 319 318 317 315 315 316 317 316 315 316 315 313 313 313 312 312 312 312 312 313 314 315 315 314 314 313 313 312 312
315 315 314 313 312 311 311 310 310 311 309 309 310 311 316 319 319 317 314 317 320 317 316 316 317 318 316 318 318 317 317 316 316 316 313 312 312 314 313 312 316 315 316 321 321 318 316 317 320 322 319 316 315 314 314 315 314 315 317 316 316 316 314 315 316 318 317 316 317 317 315 314 313 313 313 312 312 313 312 312 313 313 313 313 313 313 313 313
316 315 314 313 312 312 311 311 313 314 312 312 313 316 318 315 316 316 313 314 316 313 316 315 313 315 315 317 316 315 318 316 314 315 313 311 311 313 314 313 317 317 316 320 322 319 317 317 319 319 316 315 316 316 314 314 314 315 316 316 316 317 316 315 316 317 316 315 316 316 315 314 313 313 313 313 312 313 313 312 312 312 312 312 313 312 313 313
316 316 315 314 314 314 313 313 315 314 313 312 312 315 315 310 310 312 309 313 314 311 314 315 312 313 313 314 316 314 316 315 315 316 314 311 311 313 313 313 317 318 316 316 318 318 317 318 317 315 316 315 316 316 315 314 315 316 316 317 317 318 316 315 316 317 314 314 318 317 314 313 312 312 311 312 312 312 313 313 313 313 312 312 312 312 312 312
316 316 316 315 315 315 314 314 315 313 311 311 311 313 312 308 307 308 310 315 315 312 313 314 313 313 312 313 315 314 314 314 316 318 315 311 312 314 313 312 315 317 317 316 315 316 317 319 316 314 316 316 316 315 315 315 316 317 317 317 317 317 316 315 315 316 313 313 318 317 314 312 311 312 312 312 312 312 313 313 314 314 314 313 313 313 313 313
316 316 316 316 315 316 316 315 315 313 311 312 313 311 309 307 307 309 314 318 316 314 313 310 311 313 313 312 313 315 315 313 313 317 314 312 312 314 313 313 313 315 316 315 315 314 315 318 319 317 316 316 317 316 316 316 315 316 317 317 316 316 317 314 315 318 316 316 316 314 314 314 313 313 313 313 312 312 313 313 313 313 314 314 314 314 314 314
316 316 316 316 315 316 316 316 316 314 313 313 312 311 308 306 306 308 314 319 318 317 314 311 312 313 313 312 313 314 313 312 314 316 313 312 312 313 313 312 312 314 314 313 314 314 312 315 319 319 319 319 318 317 318 318 315 315 317 318 317 316 317 316 317 318 320 322 318 315 317 316 317 317 314 314 314 313 313 312 313 313 313 313 314 313 314 316
317 317 316 316 316 316 317 317 316 315 315 314 312 312 309 307 307 308 312 318 319 317 314 312 314 313 313 312 312 313 312 311 313 314 312 312 312 313 313 312 313 313 313 314 313 313 313 314 316 318 321 322 320 320 322 321 316 315 320 324 320 318 318 319 321 321 325 328 320 318 321 319 317 318 316 317 318 317 317 315 314 313 313 313 314 314 314 318
318 317 317 316 316 316 318 319 317 316 317 315 312 311 310 308 307 308 311 317 320 318 317 314 312 312 313 312 311 312 313 313 312 312 311 312 312 313 313 313 313 312 313 316 315 315 315 314 318 319 319 321 320 318 321 322 317 316 325 330 324 322 323 322 322 324 327 325 318 320 322 319 317 317 318 319 319 319 318 317 316 315 315 314 314 315 315 318
318 318 317 317 316 316 316 316 315 315 316 315 312 310 309 308 308 309 313 319 321 319 318 315 311 311 313 311 312 312 311 311 314 312 308 309 311 313 313 313 313 313 315 317 316 318 320 318 322 322 319 320 319 318 320 321 318 318 322 325 323 322 323 321 319 322 325 320 317 320 319 318 318 315 316 316 315 316 315 315 316 315 316 315 313 315 314 317
322 319 318 318 317 316 315 315 315 316 317 315 312 310 309 308 307 311 316 318 319 317 315 313 311 312 314 312 313 314 311 310 313 311 308 310 311 311 313 312 311 312 313 315 315 316 320 319 320 323 321 319 321 325 326 322 320 319 319 322 325 326 323 319 316 318 322 320 319 321 318 317 318 315 316 315 314 315 314 313 314 314 315 315 313 315 313 315
325 323 321 319 317 317 316 316 316 318 318 315 311 309 309 310 310 313 318 318 318 316 312 311 312 314 314 314 314 314 312 311 310 310 310 311 311 310 311 311 312 317 316 316 315 314 314 313 315 321 320 320 323 321 318 318 318 317 318 320 327 331 326 324 322 318 318 319 319 321 319 316 318 318 317 315 316 317 315 314 314 313 314 315 313 315 314 314
325 324 323 320 319 319 317 317 318 319 318 313 309 310 311 313 314 317 320 317 317 318 313 311 312 313 314 316 317 313 312 312 310 312 313 312 311 312 311 311 314 319 319 317 316 315 313 312 315 320 319 320 321 315 314 318 316 316 322 322 323 330 328 325 324 319 317 318 319 320 319 317 317 317 316 315 316 316 315 315 318 316 315 315 314 314 314 315
323 324 323 320 320 319 317 318 318 317 316 310 310 315 317 315 315 318 321 318 319 320 318 318 316 314 315 315 317 316 314 314 312 312 316 315 315 313 312 314 316 316 319 320 318 316 316 315 314 317 317 318 319 317 320 321 316 316 322 321 320 324 323 321 322 323 321 320 319 318 317 316 315 316 316 316 318 317 315 315 319 320 318 317 317 317 316 320
322 322 322 320 320 320 319 319 317 316 315 311 314 322 322 320 321 322 320 320 323 321 320 324 319 317 318 316 319 320 315 316 314 311 314 315 315 314 312 315 317 317 320 322 319 319 323 321 315 314 315 317 318 317 318 320 317 315 318 320 320 320 319 320 325 326 321 321 321 316 316 317 316 318 318 315 316 318 316 315 317 319 319 319 322 324 323 326
322 321 321 320 320 320 320 318 317 316 315 313 318 323 321 322 327 326 321 321 321 319 320 324 320 317 318 318 322 321 316 318 316 311 314 315 314 317 317 315 315 316 319 319 319 322 323 320 317 316 319 318 315 314 317 321 318 314 316 319 318 323 326 323 325 324 319 326 326 315 318 322 317 319 321 315 314 316 315 316 316 316 316 317 324 329 328 328
321 320 320 320 319 320 320 319 317 316 314 314 318 321 320 324 327 325 326 326 321 318 319 320 320 319 319 321 325 322 316 319 319 314 315 315 316 321 321 316 313 315 318 318 320 322 318 319 319 316 319 318 314 314 316 321 320 315 318 317 314 322 325 319 321 321 317 324 324 316 322 326 317 314 318 315 315 316 315 315 314 314 315 315 322 332 331 327
319 319 319 319 319 319 319 318 317 315 315 315 318 319 320 325 326 323 325 323 318 320 320 318 321 322 322 325 327 324 318 319 319 316 316 315 316 320 320 316 313 312 314 317 322 321 316 320 321 314 314 315 314 315 315 319 320 316 317 317 314 319 320 316 323 324 316 318 319 317 321 321 316 315 315 314 314 315 314 314 313 313 315 314 319 328 329 327
318 318 319 319 319 320 319 318 317 314 315 316 317 319 320 322 324 322 322 317 315 323 325 320 320 323 324 325 327 326 321 319 319 317 318 317 317 318 317 316 315 312 312 315 321 322 318 318 319 316 317 314 311 314 315 316 318 317 318 317 315 319 320 321 325 325 320 318 318 317 317 315 315 317 318 316 315 315 316 316 315 314 314 314 315 322 327 326
316 317 318 319 319 319 319 318 316 313 314 316 317 319 320 321 319 318 318 317 317 322 324 320 320 322 322 321 324 326 322 320 320 319 321 320 318 318 317 317 317 313 312 312 317 323 321 316 318 319 319 315 311 313 316 313 312 317 320 318 317 320 322 322 322 322 320 318 318 317 316 315 314 314 315 315 315 316 317 316 315 313 313 313 314 320 325 320
315 317 318 319 318 319 319 317 314 312 315 317 317 319 321 320 318 316 316 316 317 318 320 321 319 319 319 317 319 323 321 321 321 320 320 319 318 320 318 317 319 315 312 312 314 318 318 317 319 318 314 315 313 314 319 317 312 314 316 316 316 318 322 323 320 320 320 318 317 317 317 315 315 315 315 315 316 316 315 314 314 312 312 313 314 319 322 322
316 319 319 318 318 319 317 314 312 314 316 318 318 318 319 318 318 318 316 317 318 318 318 320 318 316 318 318 317 317 318 321 321 319 320 319 318 320 317 315 317 317 314 312 313 315 316 317 317 315 312 314 314 314 319 319 316 315 316 316 315 313 318 321 318 318 319 316 316 316 316 315 315 318 316 314 318 319 318 318 316 313 313 314 315 317 322 326
316 319 318 317 318 317 315 313 313 315 316 318 318 317 316 316 318 319 316 316 318 318 316 317 317 316 317 318 317 314 315 317 317 316 318 318 317 318 316 313 312 314 315 315 315 315 317 318 317 316 314 314 314 315 317 319 318 317 316 316 316 314 316 317 316 317 317 315 315 315 316 315 314 316 314 312 318 321 320 319 318 317 316 317 319 323 326 328
316 318 317 316 317 315 314 314 315 314 315 317 317 316 316 316 317 317 316 316 317 317 317 316 317 317 316 316 317 316 316 316 315 315 318 319 318 316 315 313 312 312 312 317 319 317 318 318 317 317 317 318 318 315 314 316 316 315 315 316 316 313 314 316 316 316 315 315 315 315 316 316 313 314 314 312 315 318 319 317 317 318 318 319 325 329 327 324
315 316 315 315 316 315 315 317 316 314 314 314 314 315 316 316 317 316 317 318 317 318 319 318 318 318 318 318 317 317 318 316 315 317 319 319 318 316 315 314 315 313 311 316 320 317 317 317 315 316 319 322 322 316 313 313 312 313 315 316 315 314 314 315 314 313 314 315 315 316 316 316 314 314 315 313 313 315 319 318 317 318 320 323 327 330 329 326
313 315 314 314 314 314 316 319 317 315 314 313 313 313 314 314 315 315 316 317 318 319 318 318 318 318 319 319 317 318 319 318 317 317 317 318 319 318 317 316 318 317 314 315 317 316 316 317 316 317 319 320 320 317 314 312 311 314 316 314 315 315 314 314 313 313 314 315 315 316 316 316 315 315 314 313 312 313 315 315 315 317 321 324 326 327 327 327
310 313 314 313 313 313 316 318 317 316 315 314 314 314 313 313 314 314 315 315 316 317 317 318 319 318 317 318 317 317 318 319 319 317 316 318 319 318 317 317 318 318 318 316 316 316 318 317 316 317 318 319 318 317 318 318 314 313 315 314 314 314 314 314 314 315 316 316 316 316 316 315 314 313 313 312 312 312 312 312 313 314 316 318 319 320 320 319
309 312 313 313 313 313 315 316 317 317 316 315 315 314 314 314 314 314 314 314 315 315 315 318 318 317 317 317 317 317 317 317 318 318 317 317 316 315 316 316 315 316 317 316 316 316 315 315 316 316 316 318 317 316 319 320 316 313 315 315 313 314 314 313 314 315 316 316 316 316 315 315 314 313 313 312 311 312 311 311 312 312 312 313 313 313 315 314
307 309 312 314 314 314 315 315 316 317 316 315 315 315 315 314 313 314 314 314 314 314 315 316 316 316 318 318 317 317 317 317 317 316 316 316 315 315 315 315 314 315 315 315 317 316 313 314 316 315 315 316 317 316 316 316 315 315 316 315 314 314 314 314 314 314 315 316 316 316 315 315 315 313 312 313 312 312 312 311 311 311 311 312 311 312 314 313
305 307 309 311 312 313 314 314 314 315 315 315 315 315 316 315 314 314 314 314 314 314 315 316 315 316 317 317 317 318 317 318 317 316 315 315 314 313 313 313 313 313 313 313 315 315 314 315 316 315 315 315 315 315 316 315 315 315 315 315 315 314 314 314 313 313 313 315 315 314 314 315 315 313 312 313 312 312 312 312 312 311 311 311 310 311 312 310
303 304 305 306 307 309 309 308 309 311 312 312 312 313 314 315 314 314 314 314 315 315 315 315 315 316 316 316 317 317 317 318 318 317 316 315 314 313 314 314 314 313 312 312 313 314 314 314 315 315 315 315 314 314 314 315 315 315 315 315 314 314 314 314 314 313 313 313 313 313 314 314 313 312 312 312 312 312 312 311 311 310 310 310 309 310 310 308
301 303 303 302 302 304 305 304 305 307 308 309 311 311 311 312 313 313 312 313 314 314 315 315 316 315 315 315 316 316 317 317 316 316 315 314 314 314 314 315 316 314 311 310 311 312 313 314 315 315 314 314 314 314 314 314 315 315 315 314 314 314 314 314 314 314 313 314 313 313 313 313 312 311 311 311 311 311 311 311 310 310 309 309 309 309 309 308
299 300 301 301 300 302 303 304 305 306 306 308 310 311 311 312 312 311 310 311 312 312 313 313 311 310 309 310 312 313 311 309 309 310 310 310 311 313 313 315 315 315 313 311 311 312 312 313 314 315 315 315 314 314 314 314 314 314 315 314 314 314 314 314 314 314 314 314 314 314 314 313 312 311 311 311 311 311 311 310 310 310 310 310 309 309 309 309
297 298 299 300 300 300 301 302 303 304 304 305 307 307 307 307 307 307 308 309 310 310 309 308 306 305 306 307 308 307 304 303 304 305 305 306 308 310 311 312 313 314 314 313 313 311 311 312 314 315 316 316 316 315 314 314 315 315 315 314 314 314 314 314 314 314 313 314 314 314 314 313 312 312 311 311 310 310 310 310 310 310 309 309 309 309 309 309
Wind_Speed
12 12 13 13 13 13 13 13 13 13 13 13 13 13 13 13 14 14 14 14 14 14 15 15 13 11 9 9 9 9 10 10 12 11 9 10 9 7 7 6 5 5 3 1 3 4 2 3 6 7 4 2 2 1 2 2 2 3 3 2 3 3 4 5 4 3 2 2 4 4 4 6 3 3 0 1 1 2 3 4 4 4 2 4 6 14 22 30
12 13 13 13 13 14 14 13 13 13 13 13 13 13 13 13 13 13 14 14 15 14 14 15 15 12 10 10 9 8 9 9 11 13 16 17 14 12 10 8 7 7 5 3 4 5 4 3 6 5 2 1 2 1 2 1 1 3 3 2 4 5 5 4 4 4 1 2 4 4 5 5 5 4 1 2 5 3 5 6 4 6 4 5 10 18 25 29
12 12 13 14 14 14 14 14 14 14 14 13 13 12 13 13 12 12 12 13 14 14 14 14 15 13 11 10 9 8 8 7 7 10 14 15 16 16 12 10 8 7 6 5 5 5 4 3 4 5 4 2 3 2 1 1 1 2 3 2 6 7 5 6 4 3 2 3 3 2 2 4 5 3 3 3 6 5 8 8 5 9 10 6 8 15 23 25
12 12 13 14 14 15 15 15 15 15 15 14 13 13 13 13 12 12 12 12 13 13 14 14 15 13 10 10 9 7 6 5 3 5 6 7 11 14 13 10 7 6 6 5 6 6 5 6 3 3 4 3 3 2 2 4 2 2 4 5 7 4 4 8 6 2 1 1 2 0 2 3 5 3 4 4 4 8 9 9 10 12 13 10 9 12 19 21
11 12 13 14 14 15 15 15 15 16 15 15 14 13 13 13 12 12 11 11 12 13 13 14 14 13 9 8 7 5 5 4 3 3 5 4 5 10 12 11 8 7 6 6 5 3 4 5 2 2 1 2 3 1 3 7 4 2 5 8 8 4 5 8 6 3 2 2 2 1 3 5 3 3 5 6 6 10 6 8 12 13 12 11 13 14 16 16
12 13 13 14 14 15 15 15 16 16 16 16 15 14 13 13 12 12 11 11 11 12 13 13 13 11 7 4 3 1 2 1 4 4 5 3 3 9 10 10 9 7 7 7 5 2 2 2 2 1 1 2 3 4 6 6 6 4 6 5 7 7 6 6 4 4 3 1 2 2 3 2 2 5 6 9 14 13 6 7 10 10 11 13 16 15 14 15
14 14 14 15 15 16 16 16 16 17 17 17 16 15 14 13 12 12 11 11 11 12 12 13 13 8 3 1 1 2 3 5 9 7 6 2 3 8 9 9 9 8 8 8 6 4 3 2 2 3 2 3 5 6 7 3 5 7 6 5 7 7 8 7 5 5 5 5 6 3 1 2 5 7 3 8 18 16 7 6 7 7 6 10 13 14 16 17
15 15 15 15 16 16 17 17 17 18 18 18 17 17 15 14 13 12 12 11 11 11 12 13 11 6 2 2 1 3 1 7 12 10 7 4 5 8 9 9 8 9 9 10 9 6 3 3 5 3 2 5 3 3 4 3 1 7 7 5 5 6 7 7 6 6 6 6 5 2 5 8 9 4 6 14 19 13 8 8 9 8 4 8 12 15 15 15
15 16 16 16 16 17 18 18 18 19 19 19 19 18 17 16 14 13 12 11 10 11 12 12 9 4 3 3 4 2 4 8 10 10 7 5 7 9 10 9 8 10 9 10 11 7 3 4 6 4 3 4 3 4 3 1 3 6 6 5 5 6 7 7 8 9 7 5 4 4 11 10 6 3 10 21 21 13 8 8 10 9 9 8 11 14 15 15
17 18 18 18 18 18 18 19 19 19 20 20 20 20 19 18 16 15 14 13 10 10 11 10 7 3 4 3 5 1 6 6 7 8 7 7 8 10 11 9 9 10 8 8 10 9 6 5 5 4 3 3 3 4 1 2 4 4 3 6 8 8 8 6 9 11 7 5 6 9 13 8 3 2 9 19 13 7 8 11 11 9 11 11 10 11 14 15
18 20 20 19 20 20 20 20 20 19 20 20 20 20 20 19 18 17 16 15 11 10 10 7 5 4 4 3 5 4 6 6 7 6 7 8 9 11 12 11 10 10 9 6 9 11 9 6 3 4 1 2 2 4 3 3 2 3 3 8 11 8 9 9 11 12 6 5 9 11 9 7 0 5 15 20 6 3 7 10 10 9 11 11 11 11 10 12
18 20 21 21 22 23 23 22 21 20 20 20 20 20 20 19 18 17 17 17 13 11 9 6 4 5 4 2 5 10 8 7 8 7 7 8 9 10 11 12 12 11 10 5 6 9 8 6 3 4 4 1 1 4 3 2 2 3 2 6 14 8 10 15 13 10 6 4 7 9 4 8 6 11 21 22 8 4 8 8 9 10 11 11 11 10 9 12
18 19 21 22 23 24 25 23 21 20 20 20 20 20 19 18 17 16 17 17 14 11 9 7 6 6 4 2 7 13 14 13 11 9 9 9 8 9 11 12 12 12 12 8 6 6 5 6 5 5 4 1 2 3 1 1 1 4 1 2 9 7 9 14 8 7 7 5 8 10 2 9 11 17 21 18 10 8 10 11 11 9 9 10 10 9 11 13
17 19 21 21 23 25 24 22 21 20 20 21 21 20 18 17 15 15 15 16 14 10 7 5 6 5 4 5 7 10 14 14 12 12 12 11 9 9 10 11 11 12 12 11 9 6 6 5 3 2 2 2 3 4 3 3 1 3 2 2 4 3 8 9 2 4 4 3 8 10 3 10 13 16 16 13 9 9 11 13 12 10 10 9 9 10 12 13
17 19 21 21 23 24 22 20 20 20 20 21 21 21 19 17 15 15 15 15 12 9 7 5 7 5 0 7 8 7 11 11 13 17 14 13 12 9 9 11 10 9 9 10 8 6 6 3 3 1 2 1 0 3 4 4 2 1 1 4 3 4 7 10 5 6 6 3 5 9 4 11 15 15 14 10 8 10 11 13 11 11 11 10 10 10 12 13
17 20 21 20 22 22 19 19 20 21 21 21 22 22 19 17 15 15 16 12 9 8 6 4 8 7 2 5 3 4 9 9 12 16 13 14 14 9 9 9 7 7 6 6 5 5 5 4 1 2 1 1 2 2 2 4 5 2 4 6 5 5 5 7 7 4 8 5 4 8 5 8 11 10 12 8 6 9 10 12 12 11 11 11 10 10 11 12
17 20 19 19 22 20 18 18 20 21 22 23 24 22 20 17 15 16 14 7 3 6 8 4 3 5 3 3 3 4 7 10 11 14 14 14 12 9 9 6 4 6 4 2 3 3 4 3 1 1 1 2 3 5 3 3 7 4 3 5 6 7 5 5 7 3 6 8 7 10 8 11 13 9 10 9 5 6 8 11 12 11 10 10 10 10 12 12
17 18 17 18 19 17 17 18 20 21 23 23 23 22 21 16 12 11 6 6 5 3 4 3 1 2 4 5 6 4 5 9 12 13 15 14 12 11 10 4 3 6 4 1 2 3 2 0 2 1 2 3 4 5 4 8 8 4 4 4 5 7 6 9 8 2 6 6 7 8 8 15 19 14 13 14 9 6 8 10 10 11 11 11 10 11 12 12
16 16 16 16 15 15 16 18 20 22 23 23 22 18 14 10 5 1 4 9 6 4 2 5 5 3 4 6 6 3 5 8 11 11 13 14 12 11 8 2 3 6 4 0 2 3 4 1 3 3 4 8 8 8 11 13 8 6 7 6 7 7 7 11 11 5 8 5 6 10 11 15 19 18 16 16 12 10 11 9 9 11 11 11 11 13 12 12
14 14 15 15 14 15 17 19 21 21 21 21 21 13 5 4 3 2 2 4 5 5 2 5 9 5 4 2 4 5 6 7 7 7 12 14 12 8 4 1 4 2 3 4 3 3 5 4 4 6 11 12 9 10 14 14 9 9 9 8 9 8 10 13 11 7 8 6 8 12 14 16 18 19 17 14 10 10 12 11 11 12 12 12 14 16 14 14
13 13 14 14 15 16 17 19 19 18 17 17 17 9 2 3 2 2 3 5 10 13 10 8 12 10 7 3 8 10 6 4 4 5 12 15 12 8 3 3 4 3 5 5 3 1 4 6 8 13 16 11 7 10 13 12 10 11 9 9 10 7 11 14 10 7 6 5 8 11 13 16 17 18 15 10 8 11 14 13 13 14 13 13 15 18 16 14
13 13 13 14 14 16 18 18 15 14 15 15 14 6 2 4 2 1 1 4 9 13 13 12 12 12 10 7 10 12 4 5 6 4 13 13 9 7 4 5 6 5 4 4 3 3 3 7 12 15 12 8 7 9 9 10 10 9 7 8 8 6 10 12 9 6 4 5 7 10 11 13 15 17 14 11 11 12 14 15 15 15 13 14 16 17 16 14
13 13 13 13 14 16 18 16 10 12 17 15 11 5 3 7 3 0 1 2 8 9 9 11 12 10 10 10 10 12 6 9 9 7 16 16 6 6 5 7 8 4 5 8 8 7 5 7 13 14 9 9 12 10 8 8 7 8 8 8 8 7 8 10 6 3 3 4 5 7 8 9 10 13 14 14 14 13 15 16 16 15 13 16 19 16 15 15
13 14 13 13 14 15 18 14 7 13 18 12 7 6 8 8 3 1 1 2 5 7 8 12 11 8 13 12 11 15 8 8 6 6 18 18 5 3 5 7 7 4 7 12 14 13 11 8 8 11 11 12 14 11 8 6 8 11 11 9 10 10 11 12 7 3 3 4 4 5 9 9 9 14 16 13 12 13 14 15 16 15 14 15 18 16 15 15
13 14 13 13 13 15 17 11 7 16 17 5 5 8 11 8 4 4 2 2 4 5 5 7 6 6 12 10 11 12 3 3 4 4 16 18 8 5 3 4 5 8 12 12 12 12 13 8 6 8 10 12 12 10 7 7 9 12 10 12 15 14 13 13 8 6 5 6 3 2 7 8 8 13 15 9 7 10 10 12 15 16 13 13 16 15 13 12
14 14 13 12 13 16 15 6 9 19 11 2 6 11 12 9 6 4 2 2 5 4 1 2 3 3 6 4 7 6 3 4 3 3 13 15 9 5 3 3 2 7 10 7 6 5 7 8 9 10 11 11 10 7 7 11 9 11 6 11 14 12 10 10 6 3 4 6 4 3 2 9 5 7 10 7 7 11 9 10 13 13 11 12 13 14 11 8
14 14 13 12 12 14 9 4 13 15 4 2 10 12 12 9 5 4 2 3 5 3 3 1 0 1 3 1 4 6 1 4 2 3 6 7 5 3 3 6 3 4 5 3 4 4 5 6 8 13 11 9 8 8 9 11 8 8 3 8 9 8 8 7 4 5 4 4 5 2 3 7 11 6 10 11 11 11 11 10 11 11 12 13 13 13 12 9
16 14 13 11 11 11 8 8 13 9 3 7 12 11 11 8 5 3 2 3 5 3 3 2 0 1 1 2 0 4 2 2 3 1 2 1 1 2 5 8 5 3 3 5 6 5 3 5 8 11 9 7 8 8 8 11 8 6 2 5 6 5 5 2 3 4 1 4 6 4 6 4 13 8 9 11 11 10 12 12 13 14 14 15 13 14 14 10
16 15 14 12 11 11 10 10 9 7 8 11 11 10 8 5 3 3 2 4 3 2 1 0 1 1 2 2 2 1 1 2 1 3 4 2 1 2 4 6 2 3 4 5 9 6 1 4 7 7 6 8 6 3 6 10 8 4 4 3 4 3 2 4 1 1 3 5 7 5 7 3 14 8 6 6 7 9 11 11 13 14 14 14 12 13 14 10
18 17 16 13 11 12 10 10 11 9 9 9 9 8 5 4 2 3 3 5 1 1 0 1 1 0 4 4 3 4 2 2 1 2 3 1 2 4 1 1 2 2 4 4 7 8 3 1 2 4 4 5 4 3 2 4 4 2 5 5 6 5 5 4 1 4 2 8 6 9 12 8 9 6 6 5 6 10 10 8 10 11 11 13 11 10 12 10
21 20 19 17 15 13 7 7 12 8 4 5 6 4 2 2 4 3 7 3 1 2 1 0 2 2 5 5 2 2 3 1 1 2 1 1 2 3 1 1 2 2 3 5 7 8 6 2 2 3 2 4 6 3 3 4 2 4 4 4 3 5 4 5 4 5 2 9 5 12 14 12 10 6 3 4 5 9 10 8 10 11 12 12 10 9 10 9
21 22 22 21 20 17 12 9 8 6 4 1 3 2 1 1 1 6 6 2 1 3 2 3 3 3 5 3 1 2 4 2 2 5 4 3 2 2 3 4 4 2 3 5 5 5 6 8 7 2 1 5 5 2 4 6 3 4 5 5 1 4 3 3 3 0 4 8 5 10 9 8 12 7 2 6 7 7 9 9 11 12 12 11 11 11 9 6
19 21 23 24 23 22 21 17 11 10 7 4 4 3 4 2 5 7 3 1 3 3 2 3 4 5 4 1 2 4 3 3 4 4 3 4 3 4 4 5 5 2 4 4 2 2 4 7 5 3 3 5 9 6 3 3 3 6 6 6 5 3 1 2 4 3 5 7 5 5 6 5 9 4 8 13 12 11 10 10 12 12 12 12 11 9 6 6
19 19 21 25 25 24 25 23 19 16 10 7 5 4 4 4 6 2 3 5 5 3 1 1 3 5 4 2 5 5 3 4 5 6 3 4 2 4 4 7 8 4 1 2 2 2 4 9 5 9 4 7 13 13 11 5 4 6 5 6 5 5 4 4 5 6 5 6 5 3 5 4 5 3 9 13 12 9 9 11 12 10 10 10 6 3 3 6
16 17 20 23 24 25 26 25 24 20 12 9 5 3 4 7 5 1 2 5 4 5 5 1 4 4 4 4 5 4 5 5 4 6 5 5 5 5 4 6 10 7 3 3 3 4 5 11 7 7 2 9 12 11 9 6 1 4 4 4 4 5 6 5 6 6 2 3 6 3 5 6 4 5 8 8 9 8 9 11 9 9 11 9 6 5 6 6
11 12 15 20 23 25 27 27 25 22 14 8 4 3 6 7 4 3 3 3 1 2 5 4 2 4 4 2 3 5 5 4 3 4 3 4 5 5 4 4 10 12 9 6 3 3 5 7 3 2 1 4 7 4 4 5 3 2 4 4 5 3 6 5 6 3 1 3 7 4 5 6 5 8 8 6 8 8 7 8 8 10 11 11 10 7 7 7
7 7 9 15 20 23 24 27 27 23 12 5 4 6 5 4 3 3 2 1 1 2 3 2 2 3 3 2 3 4 4 4 3 4 2 3 3 6 7 4 7 15 15 11 4 4 6 6 4 5 2 4 4 3 0 2 5 6 3 6 2 3 2 3 2 3 1 6 7 6 10 8 6 8 4 3 2 6 7 9 10 11 12 13 11 7 7 8
4 5 7 12 18 20 22 27 27 18 7 3 7 8 5 3 3 3 2 4 3 2 2 2 3 3 3 3 4 3 3 3 3 4 3 3 4 6 7 5 6 14 20 16 6 3 5 6 6 5 5 3 1 3 2 3 4 6 3 3 3 1 2 2 3 3 5 8 7 10 13 9 7 9 5 3 5 8 10 11 11 12 12 13 11 7 8 7
3 3 5 6 11 17 24 29 23 12 3 4 8 8 5 3 3 3 2 2 3 4 3 5 4 3 4 4 4 1 3 4 4 4 3 3 5 5 6 6 6 11 18 16 9 5 3 5 6 2 2 1 1 1 4 2 1 1 1 2 1 3 4 4 4 3 5 9 8 10 12 9 9 7 4 8 9 9 10 9 9 12 12 12 10 9 8 7
3 3 3 3 8 18 26 26 15 6 4 5 6 6 2 1 3 3 2 1 1 3 3 4 3 3 4 4 4 2 2 4 2 2 3 4 5 3 1 1 2 4 10 11 10 7 3 5 8 2 2 1 2 4 7 7 5 3 2 4 3 2 2 1 2 2 4 7 7 8 9 10 9 3 3 6 7 8 9 9 9 11 11 11 10 9 8 7
3 3 3 4 12 23 26 15 5 4 4 4 5 5 3 2 3 4 2 3 2 2 0 1 3 3 2 3 4 2 1 3 3 3 4 3 5 4 2 5 7 8 6 3 5 5 1 4 6 1 0 4 5 5 9 11 9 7 6 7 6 5 3 3 6 5 4 5 5 7 8 11 10 1 4 2 4 6 9 9 9 11 12 11 9 8 9 8
4 3 3 9 21 29 20 4 3 4 3 4 4 3 3 4 5 6 5 4 4 3 1 1 3 3 3 4 5 3 2 3 3 3 4 4 6 6 3 5 6 7 6 3 4 3 0 1 5 4 4 7 7 4 7 10 8 5 4 5 4 4 4 6 8 5 4 5 4 7 9 9 12 10 5 5 4 5 8 8 8 10 11 9 8 8 8 8
4 3 3 14 29 28 11 3 5 4 4 3 2 3 3 2 3 4 5 5 4 5 4 4 6 7 7 7 6 5 4 4 6 7 8 7 9 13 14 16 13 6 4 4 3 4 2 0 3 5 4 5 5 3 2 3 3 2 2 4 4 4 5 7 7 4 6 7 5 8 9 7 12 14 10 11 10 6 7 8 9 10 8 6 7 7 7 8
3 2 1 15 30 23 6 4 6 5 6 4 4 5 3 2 4 6 7 6 5 4 4 5 7 8 8 7 7 8 8 6 8 11 10 7 9 13 16 20 19 7 1 2 1 3 3 1 2 2 4 5 5 4 3 2 2 2 3 5 6 8 9 7 5 4 6 10 10 11 9 7 12 16 13 15 15 10 7 8 8 8 6 6 7 7 7 8
2 2 1 9 20 14 4 5 5 5 7 8 10 9 7 5 6 10 13 10 7 6 4 4 4 5 6 6 6 9 11 9 8 8 7 6 6 7 10 14 14 8 7 8 4 2 1 2 1 1 4 6 6 6 6 3 2 1 3 8 11 14 15 11 7 6 9 12 13 12 10 11 15 19 20 21 20 16 14 12 10 8 7 8 8 8 8 8
2 2 2 4 8 6 4 5 6 6 6 8 8 8 11 11 7 9 12 11 10 11 8 5 2 2 4 7 8 9 11 12 10 7 5 6 5 4 8 11 11 11 16 14 9 5 2 4 7 10 10 10 10 11 9 4 4 6 8 12 14 15 16 13 9 10 11 11 12 13 15 17 17 18 22 24 24 23 22 18 14 11 11 11 10 8 8 8
2 3 3 2 2 4 5 5 7 7 7 7 5 5 11 14 8 6 9 9 10 10 8 7 7 8 7 8 11 11 11 13 13 11 9 9 7 6 7 8 8 12 16 13 10 7 3 6 12 17 19 18 18 20 19 15 14 16 16 16 15 14 14 13 12 14 13 11 13 15 18 20 18 17 23 26 26 26 24 20 15 12 12 12 9 8 9 10
3 2 2 2 2 3 5 5 5 6 6 8 6 5 11 14 10 7 6 6 7 8 5 6 11 15 15 14 12 10 10 11 11 12 13 11 10 9 8 9 11 14 13 8 7 7 4 7 12 17 21 23 23 25 25 22 21 20 19 19 20 19 17 16 17 19 16 14 16 15 17 20 17 17 22 25 26 27 24 20 17 13 12 10 8 8 10 13
2 2 3 3 2 3 4 2 3 4 4 5 3 4 7 10 10 7 2 2 4 6 8 9 12 16 19 20 16 12 11 12 12 13 11 10 11 10 8 9 11 12 12 8 5 5 4 6 11 16 19 20 22 24 25 25 23 22 21 21 22 22 22 22 21 21 21 21 20 19 22 23 17 16 21 23 24 22 19 19 19 17 18 15 11 10 11 15
2 1 2 3 2 4 5 3 3 5 4 4 4 4 5 7 9 7 3 2 4 3 6 12 13 11 12 14 14 14 14 13 14 11 7 7 7 6 6 7 7 6 7 7 4 5 6 8 11 13 14 14 18 21 22 24 23 24 24 23 22 23 24 24 22 20 19 21 23 24 24 21 17 19 23 24 23 20 18 22 23 22 24 20 13 10 13 15
3 2 2 2 2 4 4 3 2 3 3 4 4 4 4 6 7 6 5 6 8 7 6 8 10 9 9 10 10 11 10 10 13 13 11 11 9 6 5 6 6 4 3 4 4 4 6 7 7 8 9 9 14 19 22 24 25 25 24 23 24 24 23 22 21 19 19 21 24 23 19 16 17 21 23 24 25 24 23 24 24 24 25 20 13 13 16 16
3 3 1 1 3 5 5 2 1 2 4 5 4 3 3 5 6 7 6 4 4 5 5 7 10 9 8 10 10 10 11 13 13 14 13 13 13 11 9 9 9 8 5 4 3 3 6 6 5 7 9 8 13 20 21 20 18 16 17 24 29 27 24 22 20 21 22 21 18 17 16 17 19 20 20 21 23 24 24 23 22 22 21 18 14 14 16 16
Wind_Direction
7 7 6 6 6 6 6 6 8 9 11 11 11 12 10 11 8 6 2 1 0 359 358 357 358 347 341 336 319 300 290 285 288 282 257 260 269 260 261 251 236 246 250 212 184 187 182 190 220 213 208 230 186 198 209 185 109 64 92 165 240 229 221 209 216 243 194 225 243 246 202 166 240 273 280 322 268 230 238 252 252 268 336 60 133 141 146 155
358 358 357 357 357 357 357 357 358 359 2 3 5 6 4 6 4 3 360 357 356 355 354 353 353 347 341 336 325 314 302 293 293 279 264 265 264 254 250 247 252 255 241 198 175 182 171 191 225 202 148 197 218 180 182 218 123 124 153 194 232 215 227 232 239 263 268 220 207 227 215 181 209 210 124 251 263 253 236 256 236 246 276 77 124 141 148 155
350 351 350 350 350 350 349 349 350 350 352 353 356 357 357 357 358 360 357 354 353 352 351 349 348 347 343 333 331 329 315 312 301 276 274 270 252 241 234 236 249 251 234 199 185 201 213 263 245 184 150 232 244 151 159 258 202 183 168 220 245 224 249 279 279 264 254 223 179 249 220 193 230 188 130 227 262 255 226 234 204 227 235 179 152 151 154 160
344 344 343 344 344 344 343 343 342 342 343 344 347 349 350 349 350 352 354 351 348 348 347 345 343 342 342 334 332 331 337 347 294 268 299 282 244 232 224 225 230 235 233 206 209 222 244 288 296 167 156 239 266 121 166 225 206 190 166 208 239 224 273 277 273 247 184 113 137 302 357 273 253 172 169 189 266 268 234 223 209 222 225 190 176 172 167 169
341 339 338 338 339 339 338 338 337 337 337 337 339 341 343 343 343 344 348 347 344 345 344 342 338 336 339 337 330 331 14 15 293 310 336 302 236 224 219 221 217 223 227 212 218 216 260 283 350 46 142 237 279 110 213 218 180 206 210 217 235 236 275 270 260 232 165 93 108 329 303 264 252 175 199 180 224 255 222 211 215 222 226 189 179 183 176 177
337 336 336 334 334 333 332 333 332 332 331 332 332 334 337 337 338 338 341 342 340 341 339 339 336 334 340 341 332 360 69 307 278 324 335 336 219 214 210 218 214 216 217 204 198 172 252 263 74 52 188 233 238 214 244 228 170 225 251 235 241 238 252 267 269 244 200 168 223 239 241 247 296 269 230 195 227 241 201 193 206 216 227 198 180 176 181 189
334 334 333 332 331 328 328 329 327 327 326 326 326 327 329 330 331 332 335 338 336 336 336 335 332 328 334 5 359 58 95 253 269 286 300 310 215 208 201 213 212 212 207 191 181 172 196 199 194 197 195 248 230 222 257 260 174 216 261 274 263 250 246 264 278 249 207 210 226 218 299 267 247 264 268 224 238 243 235 236 222 216 207 179 173 177 191 196
331 331 330 330 329 327 327 326 326 325 323 323 323 322 322 324 324 324 327 330 331 332 333 331 327 319 275 182 146 23 19 253 266 271 272 252 210 201 199 208 209 209 205 197 189 174 169 199 226 206 223 250 227 244 270 330 235 222 244 269 272 266 263 279 292 264 233 229 224 237 275 243 225 264 297 256 251 249 235 248 246 236 197 159 176 190 197 202
328 329 328 328 327 327 326 326 326 323 322 322 320 319 318 318 318 317 318 321 325 326 329 328 319 299 246 187 108 11 259 244 261 260 248 227 209 203 204 207 207 208 209 213 206 189 165 202 226 199 208 239 246 280 283 341 269 226 231 263 280 280 280 289 291 273 255 242 182 216 258 247 228 283 284 258 253 253 234 239 244 234 229 203 191 195 197 204
330 330 328 328 328 328 327 327 325 322 322 320 318 317 316 316 316 313 309 310 317 318 324 324 307 273 234 184 106 308 257 244 253 244 231 221 213 210 211 211 212 210 213 225 220 208 189 204 214 171 188 239 253 274 253 198 235 239 258 287 280 282 287 274 273 272 261 248 190 206 253 263 223 185 268 261 245 233 227 241 243 225 232 223 205 205 199 205
333 332 330 332 332 331 332 329 326 324 321 318 317 316 315 316 316 313 306 302 306 311 315 313 290 244 216 165 138 227 254 245 242 231 220 218 214 215 217 217 216 213 219 240 241 229 219 224 188 128 214 238 257 290 271 225 251 287 331 315 288 295 300 273 266 268 255 251 201 189 252 286 182 179 246 256 240 178 222 242 243 223 233 228 217 216 204 212
331 332 333 336 336 336 337 333 330 328 322 320 318 316 316 317 316 312 304 298 298 304 303 290 255 216 206 182 209 237 250 242 241 232 218 216 212 217 219 220 221 219 219 232 255 244 236 240 172 160 241 206 291 300 264 251 337 292 18 317 289 313 300 273 268 254 212 221 179 147 287 285 234 220 242 253 253 249 249 255 247 228 232 232 227 224 215 224
330 331 332 335 335 337 338 336 336 331 324 322 319 319 318 318 317 311 302 296 293 297 293 268 233 205 196 251 238 239 244 241 239 234 223 218 212 216 219 219 223 225 223 224 243 251 242 236 184 189 236 170 251 275 232 330 346 283 359 240 282 325 294 269 265 235 205 198 150 129 279 266 243 238 244 254 252 246 253 253 246 236 236 233 231 230 230 230
327 326 329 332 333 336 338 339 339 333 327 324 321 320 319 318 314 307 299 292 289 293 282 248 215 188 185 250 256 243 238 236 233 230 224 216 206 209 217 216 221 225 227 231 238 249 243 230 165 178 265 186 240 301 340 341 303 270 307 227 259 300 276 272 251 167 180 202 151 137 221 258 258 253 250 255 242 230 241 247 244 239 239 236 233 232 238 236
322 322 326 329 329 335 340 342 341 334 329 324 319 319 319 317 309 301 293 284 283 278 260 222 196 165 50 269 263 246 229 225 228 229 226 215 203 202 208 207 212 214 219 229 233 236 220 186 122 146 281 265 246 313 326 331 303 221 243 278 267 207 261 285 269 181 182 226 165 146 196 258 262 263 260 257 234 222 231 244 245 240 240 238 238 234 240 245
318 321 325 326 329 335 340 342 341 334 329 322 318 318 317 314 305 292 284 282 280 257 224 189 192 184 303 279 255 243 220 217 227 225 220 213 210 206 192 185 189 191 199 215 210 199 172 136 135 163 195 294 144 138 18 348 308 275 200 249 260 227 265 297 289 217 170 160 191 193 210 257 263 266 269 266 233 221 227 243 245 242 244 237 239 238 239 248
317 322 325 326 329 334 338 341 340 334 329 323 318 318 316 313 298 285 281 271 260 220 187 167 179 187 258 275 272 260 210 205 213 206 205 207 207 194 170 160 176 175 161 174 176 165 153 137 177 158 95 239 164 117 58 298 270 280 212 234 254 244 259 277 292 305 145 146 201 222 228 250 259 268 281 284 252 220 220 238 244 242 246 240 239 241 239 245
320 324 327 329 331 336 339 340 339 336 332 323 319 319 315 307 291 286 265 177 135 112 192 247 82 160 254 245 237 230 175 192 197 193 200 197 189 182 171 159 149 140 102 52 189 152 164 181 139 156 297 231 180 141 174 233 239 233 208 226 255 250 254 258 268 242 156 170 205 220 233 250 259 265 270 273 266 245 231 234 243 244 246 245 242 241 240 242
324 329 335 337 341 345 345 344 343 341 335 325 324 322 311 306 299 311 137 149 132 98 201 222 176 167 251 234 213 173 142 170 178 189 195 186 183 183 183 185 115 123 112 107 238 172 161 111 100 149 238 227 206 184 204 228 232 227 230 240 250 253 258 257 262 224 176 196 217 219 232 242 254 258 257 262 263 259 252 242 244 248 250 250 248 246 243 243
326 333 341 348 353 353 350 349 348 347 342 337 341 341 331 353 355 22 91 173 214 235 246 193 189 218 286 247 156 143 148 161 176 198 189 181 174 164 178 167 81 120 169 162 203 188 159 174 172 193 224 227 208 198 217 234 242 252 257 261 256 255 264 260 265 248 186 199 228 224 236 241 248 255 252 255 263 262 258 248 241 244 247 250 251 253 252 248
327 332 341 349 354 355 352 352 354 357 354 354 360 5 59 40 326 300 327 271 252 253 262 234 209 229 254 205 162 163 159 186 230 212 183 177 160 150 187 154 123 212 204 172 206 235 162 189 208 214 226 230 203 200 220 232 239 250 253 261 261 248 261 261 258 257 198 200 248 237 243 250 249 255 256 252 252 255 254 248 246 244 243 249 253 255 256 252
322 327 335 343 351 353 352 355 5 12 6 6 12 28 82 19 334 268 301 287 275 253 251 252 238 241 249 241 202 180 165 223 240 215 180 173 162 177 189 156 176 204 173 169 247 260 212 220 225 222 231 245 232 215 216 228 234 243 246 256 263 250 267 268 250 255 211 190 252 250 247 253 253 257 259 249 239 244 248 246 248 248 246 253 253 253 256 257
312 319 329 335 342 348 350 355 14 19 4 358 7 26 9 353 349 329 188 269 290 261 240 239 236 234 233 247 217 181 197 222 224 220 182 169 173 196 168 174 195 174 153 189 212 223 226 231 226 221 224 237 245 239 224 243 248 239 239 249 258 250 263 267 249 250 220 207 254 264 260 257 258 266 260 247 241 242 248 248 251 252 247 251 253 254 259 259
303 311 320 326 332 342 348 349 7 6 353 352 11 14 359 347 330 351 266 247 278 260 241 226 222 218 217 228 196 181 217 223 207 214 182 169 156 168 178 185 179 173 203 206 209 225 236 227 207 205 211 223 241 244 222 239 259 244 233 234 249 248 242 252 271 322 288 276 287 287 286 268 235 250 256 248 241 242 248 251 255 256 247 251 258 256 255 256
297 302 309 320 323 332 343 345 354 350 346 6 33 2 358 347 320 354 355 283 279 274 274 233 215 223 218 210 176 178 243 247 214 197 176 174 160 147 204 184 165 212 220 216 220 237 246 228 179 191 211 218 232 242 208 198 249 258 230 214 236 246 245 255 290 335 315 294 285 227 284 276 208 224 248 252 240 240 241 239 246 252 248 250 259 258 250 245
290 293 301 308 310 327 342 347 337 340 345 43 3 350 353 344 320 333 9 311 277 256 284 206 185 206 207 184 153 138 359 282 257 142 165 181 180 154 196 183 192 229 210 213 236 242 241 219 191 204 217 213 222 244 212 190 233 269 227 199 224 241 254 263 278 299 265 266 269 135 255 282 252 214 234 234 227 236 235 232 238 245 246 242 248 256 250 230
281 283 290 294 301 320 335 321 326 338 358 324 334 339 341 338 316 306 349 325 282 195 138 236 310 139 171 183 141 125 231 263 40 92 159 185 197 160 205 206 204 223 170 152 264 243 212 201 199 213 218 209 216 240 216 184 213 266 220 183 205 227 248 250 224 223 233 272 283 162 135 282 281 237 206 206 210 229 238 238 242 240 241 242 242 252 251 224
275 275 278 278 286 300 303 305 319 328 308 314 329 334 338 338 311 323 50 287 277 115 116 247 351 49 55 335 316 136 219 272 88 302 337 46 201 136 217 221 191 202 157 152 234 252 168 185 206 206 206 208 216 228 195 167 205 254 155 165 170 188 219 161 166 228 299 334 281 207 135 264 279 250 191 203 205 221 236 234 239 238 236 241 238 246 253 235
271 268 267 266 269 275 283 288 290 293 302 320 333 330 334 330 314 47 91 253 273 79 69 153 126 306 36 37 292 206 4 1 120 278 342 32 301 70 209 225 170 249 263 198 233 266 121 203 205 171 181 215 213 205 166 169 214 227 116 102 69 71 64 77 165 198 44 305 259 193 147 225 277 261 173 191 202 215 234 230 233 235 236 243 236 238 252 246
275 268 261 254 250 257 264 263 260 277 303 319 335 332 323 317 36 74 238 249 293 312 10 76 194 200 103 120 258 252 233 327 18 343 356 99 358 13 262 233 95 244 284 281 261 259 250 286 209 166 189 201 146 94 130 171 205 132 94 56 27 10 27 53 354 76 58 276 238 175 175 193 270 277 149 172 200 199 211 224 239 244 243 250 245 234 243 241
280 274 261 242 238 243 231 242 256 260 289 321 344 346 314 336 80 146 236 238 13 273 100 125 229 120 140 167 223 223 195 274 93 130 208 153 35 24 354 267 78 59 319 296 279 264 258 257 228 230 184 123 99 83 349 8 62 92 94 74 20 328 11 28 356 59 209 264 216 179 183 184 232 263 153 224 242 200 198 203 225 238 240 247 250 238 236 233
276 277 266 247 241 234 215 233 248 205 181 66 40 18 35 49 196 219 240 356 352 229 173 193 200 165 198 216 294 186 168 209 186 167 177 166 166 185 203 211 165 90 284 250 268 287 267 234 213 232 195 151 131 107 344 349 30 103 108 104 66 296 342 353 316 88 221 255 225 188 179 199 240 250 218 273 281 228 210 205 212 224 230 239 249 246 235 215
268 273 266 252 244 234 226 231 219 190 188 143 96 42 77 137 237 229 220 285 242 212 163 178 183 174 164 146 254 206 177 221 189 177 187 156 182 234 255 240 193 202 248 222 266 312 287 268 200 156 275 184 155 174 237 275 185 159 148 145 168 214 241 261 261 259 256 262 250 185 166 237 278 272 208 228 237 221 209 212 218 219 220 226 240 249 233 198
265 263 260 255 250 244 238 229 215 206 189 136 107 65 104 192 251 249 168 218 241 253 250 160 156 175 168 190 222 183 183 237 176 161 189 146 169 241 247 234 215 218 201 193 270 185 252 286 195 160 225 184 174 202 208 168 158 182 159 148 178 184 175 204 236 248 267 286 280 181 164 234 294 276 212 217 234 231 211 217 223 224 229 234 245 247 197 192
272 260 257 253 245 243 238 226 218 210 176 126 100 96 160 215 249 288 217 234 263 283 286 336 117 177 238 256 243 205 212 245 168 151 186 179 191 213 205 205 200 189 151 195 250 172 221 270 224 169 167 162 179 214 190 125 114 224 127 122 219 203 187 221 257 239 214 319 289 214 201 238 250 254 241 236 257 253 228 229 230 235 241 245 244 214 188 195
282 268 256 241 236 240 234 223 216 202 173 125 110 177 209 222 205 185 215 221 233 314 319 325 129 187 254 279 265 244 229 246 190 159 207 213 212 214 199 195 191 188 184 194 225 198 228 276 245 163 27 161 178 204 169 156 204 199 125 184 220 165 171 223 284 291 123 262 271 232 235 277 311 283 256 227 243 254 261 259 243 240 239 237 237 216 195 205
290 267 242 231 237 242 233 222 208 190 171 136 170 208 225 234 209 203 252 318 153 83 38 327 221 206 234 251 260 237 217 238 199 170 213 224 228 216 205 219 193 190 200 208 225 234 231 267 252 179 217 249 189 138 280 233 146 131 176 214 196 63 122 165 244 314 289 249 264 261 260 280 302 282 301 45 304 263 262 251 237 237 236 236 239 220 207 214
293 253 245 245 245 240 227 213 193 170 145 152 210 230 223 210 211 205 296 332 313 318 2 240 244 255 242 242 262 228 194 214 178 175 212 219 236 201 182 217 201 193 208 213 228 259 222 250 260 184 186 253 109 129 279 313 119 137 204 207 118 148 228 156 177 227 244 246 260 273 275 274 249 256 292 318 266 247 238 232 232 237 235 240 244 233 227 222
274 252 262 246 233 228 210 193 174 150 140 188 215 233 215 216 232 207 241 306 294 284 263 226 227 270 285 275 284 274 201 215 192 196 215 210 235 201 169 217 224 206 212 205 208 237 206 228 250 216 185 211 46 175 196 212 187 105 340 334 93 178 188 185 182 169 222 244 257 271 279 275 251 242 245 241 233 232 237 235 238 240 238 242 241 232 226 213
234 248 259 168 192 200 184 169 154 146 192 200 217 228 219 300 278 253 232 143 218 264 239 225 233 259 284 297 306 306 252 253 244 245 242 214 239 247 165 262 326 278 237 211 212 228 197 224 237 275 353 228 200 208 181 178 196 187 214 249 247 220 174 224 236 174 208 236 244 252 263 270 262 191 158 237 225 211 220 217 226 236 236 242 244 236 226 214
212 242 239 165 178 173 157 145 148 176 198 226 233 233 240 254 249 267 261 128 150 276 105 202 261 270 285 292 296 303 310 310 312 293 279 258 268 284 48 48 29 4 326 265 241 254 202 231 238 218 294 243 239 219 186 182 183 179 199 213 214 220 219 255 251 222 216 235 236 243 252 264 268 193 117 235 212 203 218 212 221 233 230 234 241 237 227 219
231 235 183 168 174 162 146 143 214 173 200 223 226 233 216 219 231 249 249 197 191 222 173 202 235 229 238 246 255 263 280 292 282 271 268 271 289 288 309 354 12 21 352 296 261 280 188 211 258 251 232 245 258 239 201 199 187 165 191 203 201 210 207 235 247 246 261 254 241 253 253 258 270 273 291 296 260 212 219 217 224 240 237 230 230 235 240 238
230 244 156 172 174 164 150 215 198 189 229 213 251 249 189 208 236 234 237 217 202 205 194 207 217 217 222 220 222 230 228 227 221 228 245 261 275 272 276 294 308 348 8 312 306 328 341 43 272 276 290 301 306 305 218 189 149 123 216 201 193 211 214 229 249 275 279 264 258 263 257 260 277 280 294 303 289 249 223 221 220 234 248 253 252 256 260 254
243 262 180 183 181 174 172 215 193 212 224 219 257 242 222 250 234 237 241 214 196 206 211 218 216 220 224 209 205 212 205 214 226 224 229 235 246 253 261 276 283 292 356 254 294 340 311 340 33 317 297 303 309 301 267 223 167 184 214 205 209 227 234 242 260 272 264 254 252 261 264 259 271 279 288 288 283 271 250 238 226 231 247 264 263 258 250 249
284 252 264 198 192 191 211 215 210 221 214 223 235 230 240 249 213 226 240 234 217 207 217 242 223 214 219 203 213 218 204 213 233 221 209 215 241 257 251 253 259 260 240 215 168 91 254 206 129 233 242 247 250 252 245 214 189 226 220 220 224 228 232 239 249 247 243 239 237 244 255 252 258 272 278 275 273 268 258 250 243 237 241 245 245 246 250 252
304 251 245 205 203 220 242 224 226 226 211 223 233 223 228 237 231 221 228 238 237 222 226 250 227 200 211 203 224 238 223 222 228 220 206 213 235 249 232 229 225 228 237 222 170 126 155 190 204 217 224 231 236 244 245 217 217 247 243 234 231 230 232 232 233 238 241 244 239 235 243 250 252 260 269 270 271 269 264 258 252 245 246 251 250 250 254 252
269 260 234 212 217 225 230 231 229 223 209 213 220 210 221 232 243 223 209 219 225 220 229 236 217 218 221 212 225 236 232 229 228 229 232 226 233 248 239 233 223 225 236 222 170 147 166 206 215 220 225 230 235 243 249 246 243 246 247 245 242 237 233 231 233 237 238 248 249 236 236 247 249 248 257 265 269 269 269 268 266 258 249 248 248 247 248 253
253 265 272 290 276 230 229 236 239 240 230 219 217 226 234 236 232 219 217 230 222 204 211 232 220 221 227 230 238 244 238 239 236 234 237 234 236 253 256 244 237 232 234 222 170 163 205 225 220 225 229 230 232 239 244 247 249 248 248 249 249 245 240 236 239 239 235 240 250 246 242 247 248 246 251 256 261 266 272 278 277 270 259 247 235 238 252 262
282 272 296 332 322 271 280 307 323 303 268 248 247 229 238 247 244 245 260 270 249 208 209 232 225 219 226 229 233 241 235 239 242 230 229 232 225 232 250 249 243 231 222 219 193 178 214 227 216 228 238 233 231 236 239 243 248 249 248 246 248 250 247 243 244 244 242 245 253 257 255 254 253 252 254 256 260 267 278 283 281 276 269 258 240 239 256 268
302 271 300 352 339 284 297 317 328 324 301 277 268 231 239 262 266 280 297 254 278 266 227 245 248 244 250 245 242 246 243 253 266 262 271 280 248 232 249 250 254 239 206 209 219 201 213 218 210 225 244 238 232 235 236 237 241 244 245 246 246 249 251 250 250 249 249 252 252 252 255 257 257 255 256 259 263 268 271 272 274 273 269 266 263 265 268 272
288 311 303 316 294 268 277 289 314 316 283 247 238 234 250 261 272 297 295 251 257 271 270 285 302 317 315 301 287 283 293 308 306 309 322 311 291 286 283 270 279 285 191 191 218 206 213 225 220 232 249 237 229 234 234 234 237 239 241 244 244 243 243 244 244 241 240 246 250 250 252 253 250 249 251 254 257 260 259 260 264 266 269 275 282 278 275 276
308 325 293 271 272 254 257 288 292 266 259 245 255 293 296 296 317 324 303 265 256 285 317 334 334 333 320 311 311 314 319 316 306 305 305 291 281 276 270 268 265 257 237 225 227 193 203 227 230 235 251 246 231 234 234 233 236 235 230 233 236 237 239 242 245 244 240 238 243 246 245 244 245 246 247 249 249 250 250 251 256 263 272 282 283 276 276 277